| time (UTC) | temp F | wind direction | speed knots | gust knots | rain 1hr in | rain 24hr in | rain mn in | humidity % | barometer mb |
| 20260505051537 | 0 | 200 | 3.5 | 7.8 | 0.00 | 0.00 | 0.00 | 1009.9 | |
| 20260505041520 | 0 | 214 | 4.3 | 7.0 | 0.00 | 0.00 | 0.00 | 1009.3 | |
| 20260505040016 | 0 | 193 | 3.5 | 6.1 | 0.00 | 0.00 | 0.00 | 1009.2 | |
| 20260505034512 | 0 | 194 | 5.2 | 7.8 | 0.00 | 0.00 | 0.00 | 1009.1 | |
| 20260505033007 | 0 | 198 | 2.6 | 6.1 | 0.00 | 0.00 | 0.00 | 1008.9 | |
| 20260505031503 | 0 | 205 | 4.3 | 6.1 | 0.00 | 0.00 | 0.00 | 1008.8 | |
| 20260505030058 | 0 | 200 | 4.3 | 6.1 | 0.00 | 0.00 | 0.00 | 1008.7 | |
| 20260505024553 | 0 | 226 | 4.3 | 7.8 | 0.00 | 0.00 | 0.00 | 1008.6 | |
| 20260505023050 | 0 | 211 | 3.5 | 6.1 | 0.00 | 0.00 | 0.00 | 1008.7 | |
| 20260505021545 | 0 | 206 | 2.6 | 7.0 | 0.00 | 0.00 | 0.00 | 1008.8 | |
| 20260505020040 | 0 | 218 | 3.5 | 7.8 | 0.00 | 0.00 | 0.00 | 1008.8 | |
| 20260505014537 | 0 | 202 | 4.3 | 7.8 | 0.00 | 0.00 | 0.00 | 1009.0 | |
| 20260505013031 | 0 | 184 | 6.1 | 8.7 | 0.00 | 0.00 | 0.00 | 1009.0 | |
| 20260505011546 | 0 | 182 | 6.1 | 8.7 | 0.00 | 0.00 | 0.00 | 1009.1 | |
| 20260505010023 | 0 | 209 | 4.3 | 11.3 | 0.00 | 0.00 | 0.00 | 1009.2 | |
| 20260505004519 | 0 | 189 | 7.0 | 9.6 | 0.00 | 0.00 | 0.00 | 1009.2 | |
| 20260505003014 | 0 | 191 | 7.0 | 9.6 | 0.00 | 0.00 | 0.00 | 1009.1 | |
| 20260505001510 | 0 | 198 | 4.3 | 6.1 | 0.00 | 0.00 | 0.00 | 1009.3 | |
| 20260505000005 | 0 | 243 | 1.7 | 5.2 | 0.00 | 0.00 | 0.00 | 1009.5 | |
| 20260504234502 | 0 | 183 | 4.3 | 7.8 | 0.00 | 0.00 | 0.00 | 1009.6 | |
| 20260504233110 | 0 | 173 | 1.7 | 4.3 | 0.00 | 0.00 | 0.00 | 1009.6 | |
| 20260504231553 | 0 | 167 | 1.7 | 4.3 | 0.00 | 0.00 | 0.00 | 1009.7 | |
| 20260504230048 | 0 | 180 | 2.6 | 4.3 | 0.00 | 0.00 | 0.00 | 1009.8 | |
| 20260504224545 | 0 | 187 | 2.6 | 4.3 | 0.00 | 0.00 | 0.00 | 1009.9 | |
| 20260504223039 | 0 | 193 | 6.1 | 7.8 | 0.00 | 0.00 | 0.00 | 1010.0 | |
| 20260504221534 | 0 | 195 | 3.5 | 5.2 | 0.00 | 0.00 | 0.00 | 1010.0 | |
| 20260504220030 | 0 | 211 | 2.6 | 6.1 | 0.00 | 0.00 | 0.00 | 1010.2 | |
| 20260504214528 | 0 | 218 | 2.6 | 4.3 | 0.00 | 0.00 | 0.00 | 1010.2 | |
| 20260504213021 | 0 | 190 | 3.5 | 5.2 | 0.00 | 0.00 | 0.00 | 1010.2 | |
| 20260504211516 | 0 | 207 | 3.5 | 5.2 | 0.00 | 0.00 | 0.00 | 1010.2 | |
| 20260504210018 | 0 | 220 | 2.6 | 3.5 | 0.00 | 0.00 | 0.00 | 1010.3 | |
| 20260504204509 | 0 | 217 | 2.6 | 4.3 | 0.00 | 0.00 | 0.00 | 1010.5 | |
| 20260504203004 | 0 | 213 | 1.7 | 3.5 | 0.00 | 0.00 | 0.00 | 1010.5 | |
| 20260504201559 | 0 | 195 | 0.9 | 2.6 | 0.00 | 0.00 | 0.00 | 1010.6 | |
| 20260504194600 | 0 | 227 | 3.5 | 5.2 | 0.00 | 0.00 | 0.00 | 1010.6 | |
| 20260504193046 | 0 | 235 | 1.7 | 3.5 | 0.00 | 0.00 | 0.00 | 1010.6 | |
| 20260504191549 | 0 | 214 | 1.7 | 4.3 | 0.00 | 0.00 | 0.00 | 1010.7 | |
| 20260504190038 | 0 | 186 | 1.7 | 2.6 | 0.00 | 0.00 | 0.00 | 1010.8 | |
| 20260504184533 | 0 | 225 | 1.7 | 3.5 | 0.00 | 0.00 | 0.00 | 1010.8 | |
| 20260504183028 | 0 | 221 | 1.7 | 4.3 | 0.00 | 0.00 | 0.00 | 1010.7 | |
| 20260504181524 | 0 | 182 | 1.7 | 4.3 | 0.00 | 0.00 | 0.00 | 1010.8 | |
| 20260504180020 | 0 | 221 | 1.7 | 3.5 | 0.00 | 0.00 | 0.00 | 1010.9 | |
| 20260504174515 | 0 | 232 | 1.7 | 2.6 | 0.00 | 0.00 | 0.00 | 1010.9 | |
| 20260504173012 | 0 | 185 | 1.7 | 2.6 | 0.00 | 0.00 | 0.00 | 1010.9 | |
| 20260504171506 | 0 | 183 | 0.9 | 2.6 | 0.00 | 0.00 | 0.00 | 1011.0 | |
| 20260504100104 | 0 | 0.0 | 0.0 | 0.00 | 0.00 | 0.00 | 1009.4 | ||
| 20260504081528 | 0 | 222 | 0.0 | 1.7 | 0.00 | 0.00 | 0.00 | 1009.4 |